Location: Unspecified
(0.0000°N, 0.0000°E)
Time: 13:07:36
(UTC+00:00)

DMSP 5D-3 F17 - Visible Passes

Search period start: 23 October 2019 00:00
Search period end: 02 November 2019 00:00
Orbit: 838 x 853 km, 98.8° (Epoch: 22 October)

Date Brightness Start Highest point End Pass type
(mag) Time Alt. Az. Time Alt. Az. Time Alt. Az.
23 Oct 6.9 19:09:54 10° SSW 19:14:51 34° WSW 19:19:46 10° NW visible
24 Oct 6.2 18:56:18 10° S 19:01:36 49° WSW 19:06:52 10° NNW visible
25 Oct 5.5 18:42:51 10° S 18:48:21 71° WSW 18:53:47 10° NNW visible
26 Oct 5.2 18:29:34 10° SSE 18:35:05 82° ENE 18:40:34 10° N visible
27 Oct 5.3 18:16:25 10° SSE 18:21:49 57° ENE 18:27:11 10° N visible
28 Oct 5.6 18:03:27 10° SE 18:08:34 40° ENE 18:13:39 10° N visible
28 Oct 8.2 19:46:11 10° SW 19:48:50 14° WSW 19:51:30 10° WNW visible
29 Oct 7.8 19:31:42 10° SSW 19:35:36 20° WSW 19:39:29 10° WNW visible
30 Oct 7.2 19:17:44 10° SSW 19:22:21 28° WSW 19:26:59 10° NW visible
31 Oct 6.6 19:04:00 10° S 19:09:06 40° WSW 19:14:11 10° NW visible
01 Nov 5.9 18:50:28 10° S 18:55:51 57° WSW 19:01:13 10° NNW visible
